When you browse on this site, cookies collect data to enhance your experience and personalize the content and advertising you see.
Visit our Privacy Policy to learn more. By continuing to use the site, you agree to this use of cookies and data.
  • In Romania
  • List of Countries
  • For 7 days
  • Water Temperature
  • Weather Map
  • Weather Widgets
  • user-avatar
    Login

    Hourly Weather Olsztyn

    Today, 31 May, Sunday

    Time Temperature Precipitation Wind Pressure Humidity
    00:00 +10°C° 0.6 mm 5 mps 750 mmHg 84%
    01:00 +9°C° 0.6 mm 5 mps 750 mmHg 85%
    02:00 +9°C° 0 mm 6 mps 750 mmHg 83%
    03:00 +9°C° 0 mm 6 mps 749 mmHg 81%
    04:00 +9°C° 0 mm 6 mps 749 mmHg 78%
    05:00 +10°C° 0 mm 6 mps 750 mmHg 76%
    06:00 +11°C° 0 mm 7 mps 750 mmHg 73%
    07:00 +12°C° 0 mm 7 mps 750 mmHg 70%
    08:00 +14°C° 0 mm 7 mps 751 mmHg 67%
    09:00 +15°C° 0 mm 8 mps 751 mmHg 64%
    10:00 +16°C° 0 mm 8 mps 751 mmHg 62%
    11:00 +17°C° 0 mm 8 mps 751 mmHg 60%
    12:00 +17°C° 0 mm 8 mps 752 mmHg 59%
    13:00 +18°C° 0 mm 8 mps 752 mmHg 58%
    14:00 +18°C° 0 mm 7 mps 752 mmHg 60%
    15:00 +18°C° 0 mm 7 mps 752 mmHg 61%
    16:00 +17°C° 0 mm 6 mps 752 mmHg 63%
    17:00 +16°C° 0 mm 5 mps 753 mmHg 66%
    18:00 +16°C° 0 mm 5 mps 753 mmHg 69%
    19:00 +15°C° 0 mm 4 mps 753 mmHg 73%
    20:00 +13°C° 0 mm 4 mps 754 mmHg 74%
    21:00 +12°C° 0 mm 4 mps 754 mmHg 76%
    22:00 +11°C° 0 mm 4 mps 754 mmHg 77%
    23:00 +10°C° 0 mm 4 mps 755 mmHg 77%

    Tomorrow, 1 June, Monday

    Time Temperature Precipitation Wind Pressure Humidity
    00:00 +9°C° 0 mm 3 mps 755 mmHg 77%
    01:00 +9°C° 0 mm 3 mps 755 mmHg 78%
    02:00 +8°C° 0 mm 3 mps 755 mmHg 78%
    03:00 +8°C° 0 mm 3 mps 755 mmHg 78%
    04:00 +7°C° 0 mm 3 mps 755 mmHg 78%
    05:00 +8°C° 0 mm 4 mps 755 mmHg 72%
    06:00 +10°C° 0 mm 4 mps 756 mmHg 67%
    07:00 +10°C° 0 mm 5 mps 756 mmHg 62%
    08:00 +13°C° 0 mm 5 mps 756 mmHg 58%
    09:00 +14°C° 0 mm 6 mps 756 mmHg 55%
    10:00 +15°C° 0 mm 6 mps 757 mmHg 51%
    11:00 +15°C° 0 mm 6 mps 756 mmHg 53%
    12:00 +16°C° 0 mm 6 mps 756 mmHg 54%
    13:00 +16°C° 0 mm 5 mps 756 mmHg 56%
    14:00 +15°C° 0 mm 5 mps 756 mmHg 60%
    15:00 +15°C° 0 mm 5 mps 756 mmHg 64%
    16:00 +15°C° 0 mm 5 mps 755 mmHg 67%
    17:00 +14°C° 0 mm 5 mps 755 mmHg 70%
    18:00 +13°C° 0 mm 4 mps 755 mmHg 74%
    19:00 +12°C° 0 mm 4 mps 754 mmHg 77%
    20:00 +11°C° 0 mm 3 mps 754 mmHg 83%
    21:00 +9°C° 0 mm 3 mps 754 mmHg 88%
    22:00 +8°C° 0 mm 2 mps 754 mmHg 94%
    23:00 +8°C° 0 mm 2 mps 754 mmHg 93%

    Day after tomorrow, 2 June, Tuesday

    Time Temperature Precipitation Wind Pressure Humidity
    00:00 +8°C° 0 mm 2 mps 754 mmHg 92%
    01:00 +8°C° 0 mm 2 mps 753 mmHg 91%
    02:00 +9°C° 0 mm 2 mps 753 mmHg 88%
    03:00 +9°C° 0 mm 2 mps 753 mmHg 85%
    04:00 +10°C° 0 mm 3 mps 753 mmHg 82%
    05:00 +11°C° 0 mm 3 mps 753 mmHg 80%
    06:00 +12°C° 0 mm 4 mps 753 mmHg 78%
    07:00 +13°C° 0 mm 5 mps 753 mmHg 75%
    08:00 +13°C° 0.2 mm 5 mps 752 mmHg 75%
    09:00 +14°C° 0.2 mm 5 mps 752 mmHg 74%
    10:00 +14°C° 0.2 mm 5 mps 752 mmHg 74%
    11:00 +14°C° 0.3 mm 5 mps 751 mmHg 76%
    12:00 +14°C° 0.3 mm 5 mps 751 mmHg 77%
    13:00 +14°C° 0.3 mm 5 mps 750 mmHg 79%
    14:00 +14°C° 0.5 mm 5 mps 750 mmHg 79%
    15:00 +14°C° 0.5 mm 4 mps 749 mmHg 79%
    16:00 +15°C° 0.5 mm 4 mps 748 mmHg 79%
    17:00 +14°C° 0.2 mm 4 mps 748 mmHg 82%
    18:00 +13°C° 0.2 mm 3 mps 748 mmHg 85%
    19:00 +12°C° 0.2 mm 3 mps 748 mmHg 87%
    20:00 +12°C° 0 mm 2 mps 748 mmHg 89%
    21:00 +10°C° 0 mm 2 mps 747 mmHg 91%
    22:00 +8°C° 0 mm 2 mps 747 mmHg 93%
    23:00 +8°C° 0 mm 2 mps 747 mmHg 93%

    3 June, Wednesday

    Time Temperature Precipitation Wind Pressure Humidity
    00:00 +7°C° 0 mm 2 mps 747 mmHg 93%
    01:00 +7°C° 0 mm 2 mps 747 mmHg 93%
    02:00 +7°C° 0 mm 2 mps 746 mmHg 93%
    03:00 +6°C° 0 mm 2 mps 746 mmHg 93%
    04:00 +6°C° 0 mm 2 mps 746 mmHg 93%
    05:00 +8°C° 0 mm 2 mps 746 mmHg 87%
    06:00 +10°C° 0 mm 3 mps 746 mmHg 80%
    07:00 +12°C° 0 mm 3 mps 746 mmHg 74%
    08:00 +13°C° 0 mm 4 mps 746 mmHg 67%
    09:00 +15°C° 0 mm 4 mps 746 mmHg 60%
    10:00 +16°C° 0 mm 5 mps 746 mmHg 53%
    11:00 +17°C° 0 mm 5 mps 745 mmHg 53%
    12:00 +17°C° 0 mm 5 mps 745 mmHg 52%
    13:00 +17°C° 0 mm 5 mps 745 mmHg 52%
    14:00 +17°C° 0.1 mm 5 mps 745 mmHg 56%
    15:00 +16°C° 0.1 mm 5 mps 745 mmHg 60%
    16:00 +16°C° 0.1 mm 5 mps 745 mmHg 63%
    17:00 +15°C° 0 mm 4 mps 745 mmHg 69%
    18:00 +14°C° 0 mm 4 mps 745 mmHg 75%
    19:00 +12°C° 0 mm 3 mps 745 mmHg 81%
    20:00 +11°C° 0 mm 3 mps 745 mmHg 85%
    21:00 +10°C° 0 mm 2 mps 745 mmHg 90%
    22:00 +9°C° 0 mm 2 mps 745 mmHg 94%
    23:00 +9°C° 0 mm 2 mps 745 mmHg 95%

    4 June, Thursday

    Time Temperature Precipitation Wind Pressure Humidity
    00:00 +9°C° 0 mm 2 mps 745 mmHg 95%
    01:00 +9°C° 0 mm 1 mps 745 mmHg 95%
    02:00 +10°C° 0 mm 1 mps 745 mmHg 94%
    03:00 +10°C° 0 mm 1 mps 745 mmHg 94%
    04:00 +9°C° 0 mm 2 mps 745 mmHg 93%
    05:00 +10°C° 0 mm 2 mps 745 mmHg 89%
    06:00 +13°C° 0 mm 2 mps 745 mmHg 85%
    07:00 +14°C° 0 mm 2 mps 745 mmHg 81%
    08:00 +13°C° 0.2 mm 3 mps 745 mmHg 80%
    09:00 +14°C° 0.2 mm 3 mps 745 mmHg 79%
    10:00 +16°C° 0.2 mm 3 mps 746 mmHg 79%
    11:00 +16°C° 0.3 mm 2 mps 745 mmHg 79%
    12:00 +16°C° 0.3 mm 2 mps 745 mmHg 79%
    13:00 +16°C° 0.3 mm 2 mps 745 mmHg 78%
    14:00 +17°C° 0.1 mm 2 mps 745 mmHg 77%
    15:00 +17°C° 0.1 mm 3 mps 745 mmHg 75%
    16:00 +17°C° 0.1 mm 3 mps 744 mmHg 73%
    17:00 +16°C° 0 mm 2 mps 744 mmHg 76%
    18:00 +15°C° 0 mm 2 mps 744 mmHg 80%
    19:00 +15°C° 0 mm 1 mps 744 mmHg 84%
    20:00 +13°C° 0 mm 1 mps 744 mmHg 87%
    21:00 +12°C° 0 mm 1 mps 744 mmHg 89%
    22:00 +10°C° 0 mm 1 mps 744 mmHg 92%
    23:00 +10°C° 0 mm 1 mps 744 mmHg 92%

    5 June, Friday

    Time Temperature Precipitation Wind Pressure Humidity
    00:00 +10°C° 0 mm 1 mps 744 mmHg 92%
    01:00 +10°C° 0 mm 1 mps 743 mmHg 92%
    02:00 +10°C° 0 mm 1 mps 743 mmHg 92%
    03:00 +10°C° 0 mm 1 mps 743 mmHg 92%
    04:00 +10°C° 0 mm 1 mps 743 mmHg 92%
    05:00 +12°C° 0 mm 1 mps 743 mmHg 85%
    06:00 +14°C° 0 mm 1 mps 743 mmHg 79%
    07:00 +16°C° 0 mm 1 mps 743 mmHg 72%
    08:00 +18°C° 0 mm 2 mps 743 mmHg 65%
    09:00 +19°C° 0 mm 2 mps 743 mmHg 59%
    10:00 +20°C° 0 mm 2 mps 743 mmHg 52%
    11:00 +21°C° 0 mm 2 mps 743 mmHg 51%
    12:00 +21°C° 0 mm 2 mps 743 mmHg 51%
    13:00 +23°C° 0 mm 2 mps 743 mmHg 50%
    14:00 +21°C° 0 mm 2 mps 742 mmHg 51%
    15:00 +21°C° 0 mm 2 mps 742 mmHg 53%
    16:00 +21°C° 0 mm 2 mps 742 mmHg 54%
    17:00 +20°C° 0 mm 2 mps 742 mmHg 61%
    18:00 +19°C° 0 mm 2 mps 742 mmHg 68%
    19:00 +17°C° 0 mm 2 mps 742 mmHg 75%
    20:00 +16°C° 0 mm 2 mps 742 mmHg 78%
    21:00 +15°C° 0 mm 2 mps 742 mmHg 81%
    22:00 +12°C° 0 mm 3 mps 742 mmHg 84%
    23:00 +12°C° 0 mm 3 mps 742 mmHg 88%
    Show more